FOX-1A (AO-85)

Last updated on Mon Sep 07 2026 00:03:13 GMT+0000 (Coordinated Universal Time)

1 40967U 15058D 26249.63600244 .00000928 00000+0 92900-4 0 9995 2 40967 64.7747 25.7767 0137280 26.0110 334.7815 14.91363522125711
UTC large
Height (km)
Speed (km/s)
/
Latitude / Longitude
Inclination (degrees)
Orbital Period (minutes)
Azimuth
Elevation
Range (km)
Doppler Factor

Next 0 passes for location: London (51.5072 / 0.1276)

No passes found over London.
FOX-1A (AO-85)